Miscellaneous Local Product
Issued by NWS Hastings, NE

Home | Current Version | Previous Version | Text Only | Print | Product List | Glossary On
Versions: 1 2 3 4 5 6 7 8 9 10 11 12 13 14 15 16 17 18 19 20 21 22 23 24 25 26 27 28 29 30 31 32 33 34 35 36 37 38 39 40 41 42 43 44 45 46 47 48 49 50
000
AXUS43 KGID 060202
MISGRI

GID CWA HOURLY WEATHER ROUNDUP
NATIONAL WEATHER SERVICE HASTINGS NE
900 PM CDT SUN JUL 05 2015

NOTE: "FAIR" INDICATES FEW OR NO CLOUDS BELOW 12,000 FEET WITH NO
SIGNIFICANT WEATHER AND/OR OBSTRUCTIONS TO VISIBILITY.

...SOUTH CENTRAL NEBRASKA...

CITY           SKY/WX    TMP DP  RH WIND       PRES   REMARKS
GRAND ISLAND   PTCLDY    87  68  52 S15       29.71F HX  90
HASTINGS       PTCLDY    88  63  43 S10G20    29.73F
KEARNEY        MOCLDY    88  63  42 S17G23    29.72F
ORD            CLOUDY    86  72  62 SE9       29.68F HX  92
YORK           PTCLDY    84  72  65 SE13G18   29.75F
AURORA         PTCLDY    85  69  59 SE15      29.72F
LEXINGTON      CLOUDY    85  59  41 SW15G21   29.73S
HOLDREGE       CLOUDY    85  62  44 S8        29.74S
HEBRON         PTCLDY    86  66  50 SE8       29.78R

...NEBRASKA PANHANDLE...

CITY           SKY/WX    TMP DP  RH WIND       PRES   REMARKS
CHADRON        TSTM      62  61  96 N7        30.00R FOG
ALLIANCE       LGT RAIN  65  62  90 NW20      29.93F
SCOTTSBLUFF    LGT RAIN  66  32  28 NW17G28   29.93S
SIDNEY         CLOUDY    68  60  75 NW23G31   29.94S

...WESTERN AND NORTH CENTRAL NEBRASKA...

CITY           SKY/WX    TMP DP  RH WIND       PRES   REMARKS
VALENTINE      TSTM      69  67  93 NW25G43   29.79R VSB 3/4
AINSWORTH      CLOUDY    81  71  71 E6        29.75R THUNDER
ONEILL         CLOUDY    84  76  76 SE10      29.72F HX  93
BROKEN BOW     CLOUDY    85  73  67 SE6       29.71S HX  91
IMPERIAL       CLOUDY    77  60  55 N10       29.78R
NORTH PLATTE   CLOUDY    87  61  41 W23G30    29.76R
MCCOOK         CLOUDY    77  65  66 E17       29.76F THUNDER

...EASTERN NEBRASKA...

CITY           SKY/WX    TMP DP  RH WIND       PRES   REMARKS
NORFOLK        PTCLDY    83  76  79 SE13      29.73F HX  91
SO SIOUX CITY  MOCLDY    84  73  69 SE15      29.74F HX  90
TEKAMAH        MOCLDY    85  75  72 SE13      29.76F HX  93
COLUMBUS       CLEAR     84  72  65 SE10      29.72F
ALBION         MOCLDY    84  71  65 SE13      29.71F
OMAHA EPPLEY   MOCLDY    85  75  72 SE18      29.78F HX  93
OFFUTT AFB     PTCLDY    83  73  71 SE12      29.80S
MILLARD        LGT RAIN  80  73  79 SE14G22   29.78F
LINCOLN        PTCLDY    86  71  60 SE15G25   29.76F HX  91
NEBRASKA CITY  PTCLDY    84  66  54 S13       29.82F
BEATRICE       PTCLDY    86  72  62 SE13G18   29.80R HX  92
FALLS CITY     PTCLDY    84  75  74 SE12      29.83S HX  92

...NORTHERN KANSAS...

CITY           SKY/WX    TMP DP  RH WIND       PRES   REMARKS
GOODLAND       TSTM      81  59  47 SW7G20    29.82R
HILL CITY      CLOUDY    92  58  31 S17G28    29.77R HX  91
NORTON         CLEAR     91  50  24 S7        29.76R
PHILLIPSBURG   CLEAR     95  55  26 S14G22    29.74F HX  93
SMITH CENTER   CLEAR     90  59  35 SE16      29.77S
HAYS           CLOUDY    90  61  37 S13       29.80R
RUSSELL        MOCLDY    88  62  41 S15       29.79R
CONCORDIA      CLEAR     89  62  40 S13       29.79R
SALINA         PTCLDY    92  62  36 S10       29.80R HX  92
TOPEKA         CLEAR     85  72  65 SE9       29.86R HX  91



USA.gov is the U.S. government's official web portal to all federal, state and local government web resources and services.